• In Hungary
  • List of Countries
  • For 7 days
  • Water Temperature
  • Satellite Maps
  • Weather Map
  • News
  • Weather Widgets
  • user-avatar
    Login

    Hourly Weather Puerto San José

    Today, 18 December, Monday

    Time Temperature Precipitation Wind Pressure Humidity
    00:00 +27°C° 0 mm 2 mps 760 mmHg 71%
    01:00 +27°C° 0 mm 2 mps 759 mmHg 71%
    02:00 +26°C° 0 mm 2 mps 759 mmHg 71%
    03:00 +26°C° 0 mm 2 mps 759 mmHg 71%
    04:00 +26°C° 0 mm 2 mps 759 mmHg 70%
    05:00 +26°C° 0 mm 2 mps 759 mmHg 69%
    06:00 +26°C° 0 mm 2 mps 759 mmHg 69%
    07:00 +28°C° 0 mm 2 mps 760 mmHg 62%
    08:00 +30°C° 0 mm 2 mps 760 mmHg 54%
    09:00 +34°C° 0 mm 2 mps 760 mmHg 47%
    10:00 +35°C° 0 mm 2 mps 760 mmHg 44%
    11:00 +37°C° 0 mm 2 mps 759 mmHg 40%
    12:00 +38°C° 0 mm 3 mps 759 mmHg 36%
    13:00 +37°C° 0 mm 3 mps 758 mmHg 39%
    14:00 +37°C° 0 mm 3 mps 758 mmHg 43%
    15:00 +36°C° 0 mm 4 mps 757 mmHg 46%
    16:00 +34°C° 0 mm 3 mps 758 mmHg 54%
    17:00 +31°C° 0 mm 3 mps 758 mmHg 63%
    18:00 +29°C° 0 mm 2 mps 758 mmHg 71%
    19:00 +29°C° 0 mm 2 mps 759 mmHg 72%
    20:00 +28°C° 0 mm 2 mps 760 mmHg 74%
    21:00 +28°C° 0 mm 1 mps 760 mmHg 75%
    22:00 +27°C° 0 mm 1 mps 760 mmHg 74%
    23:00 +27°C° 0 mm 1 mps 760 mmHg 73%

    Tomorrow, 19 December, Tuesday

    Time Temperature Precipitation Wind Pressure Humidity
    00:00 +27°C° 0 mm 2 mps 760 mmHg 72%
    01:00 +27°C° 0 mm 2 mps 760 mmHg 71%
    02:00 +27°C° 0 mm 2 mps 760 mmHg 71%
    03:00 +27°C° 0 mm 2 mps 759 mmHg 70%
    04:00 +26°C° 0 mm 2 mps 760 mmHg 70%
    05:00 +26°C° 0 mm 2 mps 760 mmHg 69%
    06:00 +26°C° 0 mm 2 mps 760 mmHg 69%
    07:00 +29°C° 0 mm 2 mps 760 mmHg 61%
    08:00 +31°C° 0 mm 2 mps 761 mmHg 53%
    09:00 +34°C° 0 mm 2 mps 761 mmHg 44%
    10:00 +36°C° 0 mm 2 mps 760 mmHg 41%
    11:00 +37°C° 0 mm 3 mps 760 mmHg 37%
    12:00 +39°C° 0 mm 3 mps 759 mmHg 33%
    13:00 +38°C° 0 mm 3 mps 759 mmHg 37%
    14:00 +37°C° 0 mm 4 mps 758 mmHg 41%
    15:00 +37°C° 0 mm 4 mps 757 mmHg 44%
    16:00 +34°C° 0 mm 3 mps 757 mmHg 52%
    17:00 +31°C° 0 mm 2 mps 758 mmHg 60%
    18:00 +29°C° 0 mm 2 mps 758 mmHg 68%
    19:00 +29°C° 0 mm 2 mps 759 mmHg 70%
    20:00 +28°C° 0 mm 2 mps 759 mmHg 71%
    21:00 +28°C° 0 mm 1 mps 760 mmHg 73%
    22:00 +28°C° 0 mm 2 mps 760 mmHg 73%
    23:00 +27°C° 0 mm 2 mps 760 mmHg 72%

    Day after tomorrow, 20 December, Wednesday

    Time Temperature Precipitation Wind Pressure Humidity
    00:00 +27°C° 0 mm 2 mps 760 mmHg 72%
    01:00 +27°C° 0 mm 1 mps 759 mmHg 71%
    02:00 +27°C° 0 mm 1 mps 759 mmHg 71%
    03:00 +27°C° 0 mm 1 mps 759 mmHg 71%
    04:00 +26°C° 0 mm 1 mps 759 mmHg 71%
    05:00 +26°C° 0 mm 1 mps 759 mmHg 72%
    06:00 +26°C° 0 mm 1 mps 759 mmHg 72%
    07:00 +28°C° 0 mm 1 mps 760 mmHg 64%
    08:00 +31°C° 0 mm 1 mps 760 mmHg 57%
    09:00 +33°C° 0 mm 1 mps 761 mmHg 49%
    10:00 +35°C° 0 mm 2 mps 760 mmHg 46%
    11:00 +37°C° 0 mm 2 mps 760 mmHg 42%
    12:00 +38°C° 0 mm 3 mps 759 mmHg 38%
    13:00 +37°C° 0 mm 3 mps 758 mmHg 41%
    14:00 +37°C° 0 mm 4 mps 757 mmHg 44%
    15:00 +36°C° 0 mm 4 mps 757 mmHg 47%
    16:00 +34°C° 0 mm 4 mps 757 mmHg 55%
    17:00 +31°C° 0 mm 3 mps 757 mmHg 63%
    18:00 +29°C° 0 mm 3 mps 757 mmHg 71%
    19:00 +29°C° 0 mm 3 mps 758 mmHg 71%
    20:00 +28°C° 0 mm 2 mps 759 mmHg 71%
    21:00 +28°C° 0 mm 2 mps 759 mmHg 71%
    22:00 +27°C° 0 mm 2 mps 759 mmHg 71%
    23:00 +27°C° 0 mm 2 mps 759 mmHg 70%

    21 December, Thursday

    Time Temperature Precipitation Wind Pressure Humidity
    00:00 +27°C° 0 mm 2 mps 759 mmHg 70%
    01:00 +27°C° 0.3 mm 2 mps 758 mmHg 70%
    02:00 +26°C° 0.3 mm 2 mps 758 mmHg 70%
    03:00 +26°C° 0.3 mm 2 mps 758 mmHg 71%
    04:00 +26°C° 0.2 mm 2 mps 758 mmHg 71%
    05:00 +26°C° 0.2 mm 2 mps 758 mmHg 71%
    06:00 +26°C° 0.2 mm 1 mps 758 mmHg 71%
    07:00 +28°C° 0 mm 2 mps 759 mmHg 64%
    08:00 +30°C° 0 mm 2 mps 759 mmHg 56%
    09:00 +34°C° 0 mm 2 mps 760 mmHg 49%
    10:00 +35°C° 0 mm 2 mps 759 mmHg 46%
    11:00 +36°C° 0 mm 3 mps 759 mmHg 43%
    12:00 +37°C° 0 mm 3 mps 758 mmHg 41%
    13:00 +37°C° 0 mm 3 mps 758 mmHg 44%
    14:00 +36°C° 0 mm 3 mps 757 mmHg 47%
    15:00 +35°C° 0 mm 3 mps 756 mmHg 50%
    16:00 +33°C° 0 mm 3 mps 757 mmHg 58%
    17:00 +31°C° 0 mm 2 mps 757 mmHg 66%
    18:00 +29°C° 0 mm 2 mps 757 mmHg 74%
    19:00 +28°C° 0 mm 1 mps 758 mmHg 75%
    20:00 +27°C° 0 mm 1 mps 759 mmHg 77%
    21:00 +27°C° 0 mm 1 mps 759 mmHg 78%
    22:00 +27°C° 0.1 mm 1 mps 759 mmHg 76%
    23:00 +26°C° 0.1 mm 1 mps 759 mmHg 75%

    22 December, Friday

    Time Temperature Precipitation Wind Pressure Humidity
    00:00 +26°C° 0.1 mm 2 mps 759 mmHg 73%
    01:00 +26°C° 0.2 mm 2 mps 759 mmHg 70%
    02:00 +26°C° 0.2 mm 2 mps 758 mmHg 68%
    03:00 +26°C° 0.2 mm 2 mps 758 mmHg 65%
    04:00 +26°C° 0.1 mm 2 mps 758 mmHg 65%
    05:00 +26°C° 0.1 mm 2 mps 758 mmHg 64%
    06:00 +26°C° 0.1 mm 2 mps 759 mmHg 63%
    07:00 +28°C° 0 mm 2 mps 759 mmHg 57%
    08:00 +30°C° 0 mm 2 mps 760 mmHg 51%
    09:00 +33°C° 0 mm 1 mps 760 mmHg 45%
    10:00 +35°C° 0 mm 2 mps 760 mmHg 44%
    11:00 +36°C° 0 mm 2 mps 759 mmHg 42%
    12:00 +37°C° 0 mm 2 mps 758 mmHg 41%
    13:00 +36°C° 0 mm 3 mps 758 mmHg 44%
    14:00 +36°C° 0 mm 3 mps 757 mmHg 46%
    15:00 +36°C° 0 mm 3 mps 757 mmHg 49%
    16:00 +34°C° 0 mm 3 mps 757 mmHg 58%
    17:00 +31°C° 0 mm 2 mps 757 mmHg 66%
    18:00 +29°C° 0 mm 1 mps 758 mmHg 75%
    19:00 +28°C° 0 mm 1 mps 758 mmHg 76%
    20:00 +28°C° 0 mm 2 mps 759 mmHg 76%
    21:00 +27°C° 0 mm 2 mps 759 mmHg 76%
    22:00 +27°C° 0 mm 2 mps 759 mmHg 75%
    23:00 +27°C° 0 mm 2 mps 759 mmHg 73%

    23 December, Saturday

    Time Temperature Precipitation Wind Pressure Humidity
    00:00 +26°C° 0 mm 2 mps 759 mmHg 71%
    01:00 +26°C° 0.1 mm 2 mps 759 mmHg 70%
    02:00 +26°C° 0.1 mm 2 mps 759 mmHg 69%
    03:00 +26°C° 0.1 mm 2 mps 759 mmHg 67%
    04:00 +26°C° 0.1 mm 2 mps 759 mmHg 67%
    05:00 +26°C° 0.1 mm 2 mps 759 mmHg 67%
    06:00 +26°C° 0.1 mm 2 mps 760 mmHg 66%
    07:00 +28°C° 0 mm 2 mps 760 mmHg 59%
    08:00 +30°C° 0 mm 2 mps 760 mmHg 52%
    09:00 +34°C° 0 mm 2 mps 761 mmHg 45%
    10:00 +35°C° 0 mm 2 mps 760 mmHg 43%
    11:00 +37°C° 0 mm 3 mps 759 mmHg 40%
    12:00 +38°C° 0 mm 3 mps 759 mmHg 38%
    13:00 +37°C° 0 mm 4 mps 758 mmHg 41%
    14:00 +37°C° 0 mm 4 mps 757 mmHg 44%
    15:00 +36°C° 0 mm 5 mps 756 mmHg 47%
    16:00 +34°C° 0 mm 4 mps 757 mmHg 55%
    17:00 +31°C° 0 mm 3 mps 757 mmHg 64%
    18:00 +29°C° 0 mm 3 mps 758 mmHg 72%
    19:00 +28°C° 0 mm 2 mps 758 mmHg 73%
    20:00 +28°C° 0 mm 2 mps 759 mmHg 73%
    21:00 +27°C° 0 mm 2 mps 760 mmHg 74%
    22:00 +27°C° 0 mm 2 mps 759 mmHg 74%
    23:00 +27°C° 0 mm 1 mps 759 mmHg 74%
    Show more